sat.trackr.live / text

‹ back to catalog

STARLINK-36627

NORAD 67635 · 2026-020U

PAYLOAD ACTIVE UNKNOWN

§ Identity

Operator
Country
US
Launch date
2026-01-30
Launch site
AFETR
Launch vehicle
Mass (kg)
RCS (m²)

Purposes: comms

External: N2YO · Heavens-Above · Gunter

§ Orbital elements

Epoch: 2026-05-25T02:48:59.425344Z

Period
94.27 min
Inclination
43.0039°
Eccentricity
0.0001477
Mean motion
15.27606384 rev/d
Perigee alt
482.0 km
Apogee alt
484.0 km
Semi-major
6,861.1 km
B*
5.9534e-4
RAAN
68.0327°
Arg perigee
260.4795°
Mean anomaly
99.5889°
Rev number
1,780

§ Raw data

STARLINK-366271 67635U 26020U   26145.11735446  .00016169  00000+0  59534-3 0  99972 67635  43.0039  68.0327 0001477 260.4795  99.5889 15.27606384 17802

JSON: /api/v1/satellites/67635 · /tle

For live sub-satellite position, see the globe view (requires WebGL).

§ Visibility from observer

Set your observer location to see the next 7 days of passes ≥ 10°. The values pass through the URL so the page stays shareable.

No JS? Fill the form by hand. The geolocation button needs JavaScript.